Regional Weather Roundup
Issued by NWS

Home | Current Version | Previous Version | Graphics & Text | Print | Product List | Glossary On
Versions: 1 2 3 4 5 6 7 8 9 10 11 12 13 14 15 16 17 18 19 20 21 22 23 24 25 26 27 28 29 30 31 32 33 34 35 36 37 38 39 40 41 42 43 44 45 46 47 48 49 50
000
ASUS43 KDMX 301603
RWRIA

WEATHER ROUNDUP FOR IOWA
NATIONAL WEATHER SERVICE DES MOINES IA
1100 AM CDT SAT APR 30 2016

NOTE: "FAIR" INDICATES FEW OR NO CLOUDS BELOW 12,000 FEET WITH NO
SIGNIFICANT WEATHER AND/OR OBSTRUCTIONS TO VISIBILITY.

* - THESE STATIONS ARE NOT NWS STATIONS...THUS NOT UNDER NWS
QUALITY CONTROL.  THEY ALSO DO NOT REPORT WEATHER SUCH
AS PRECIPITATION OR FOG.

IAZ001>003-012>014-020>022-031>034-043>046-301700-
   NORTHWEST IOWA

CITY           SKY/WX    TMP DP  RH WIND       PRES   REMARKS
CARROLL *      LGT RAIN  43  43 100 NE15      29.80R
CHEROKEE *     LGT RAIN  43  43 100 NE23G33   29.83F
DENISON *      LGT RAIN  43  43 100 NE20G31   29.73F
LE MARS *      RAIN      43  41  93 NE23G31   29.83S
ORANGE CITY *  RAIN      43  41  93 NE20G26   29.83F
SHELDON *      RAIN      43  41  93 NE28G36   29.86F
SIOUX CITY     LGT RAIN  45  41  86 NE28G37   29.74F
SPENCER        LGT RAIN  43  40  89 NE21G29   29.89F FOG
STORM LAKE *   LGT RAIN  41  41 100 E32G38    29.80F
$$

IAZ055>058-069>071-079>083-090>094-301700-
   SOUTHWEST IOWA

CITY           SKY/WX    TMP DP  RH WIND       PRES   REMARKS
ATLANTIC *     PTSUNNY   46  45  93 E15G28    29.73R
AUDUBON *      LGT RAIN  45  43  93 NE16G22   29.76F
CLARINDA *       N/A    N/A N/A N/A MISG        N/A
COUNCIL BLFS * CLOUDY    46  46 100 E13G18    29.71S
CRESTON *      CLOUDY    46  46 100 E16       29.72S
HARLAN  *      CLOUDY    45  45 100 E17G28    29.77R
LAMONI         CLOUDY    49  48  97 E9        29.70R
RED OAK *      CLOUDY    48  46  93 NE7G20    29.70R
SHENANDOAH *   CLOUDY    50  50 100 E10G20    29.68R
$$

IAZ047>049-059>061-072>074-084-301700-
   CENTRAL IOWA

CITY           SKY/WX    TMP DP  RH WIND       PRES   REMARKS
AMES           RAIN      45  45 100 E17G25    29.79F FOG
ANKENY *       CLOUDY    46  46 100 E15G23    29.77F FOG
BOONE *        MIX PCPN  45  45 100 E18G28    29.78F
CHARITON *     LGT RAIN  48  48 100 E16       29.73F
DES MOINES     RAIN      48  44  86 E14G29    29.75F FOG
GRINNELL*      RAIN      45  45 100 E20       29.80F
KNOXVILLE *    RAIN      48  46  93 E13       29.75F VSB 3/4
MARSHALLTOWN   LGT RAIN  45  43  93 E22G35    29.81F FOG
NEWTON *       CLOUDY    46  46 100 E23       29.77F FOG
PELLA *        LGT RAIN  47  46  97 E13G21    29.77F
$$

IAZ004>006-015-016-023>025-035-036-301700-
   NORTH CENTRAL IOWA

CITY           SKY/WX    TMP DP  RH WIND       PRES   REMARKS
ALGONA *       RAIN      45  43  93 E16G23    29.92R
CLARION *      CLOUDY    45  45 100 E25G32    29.87S FOG
ESTHERVILLE    RAIN      43  41  93 E18       29.94R FOG
FORT DODGE *   CLOUDY    45  39  81 NE15G22   29.85F
MASON CITY     LGT RAIN  45  42  89 E21G30    29.93S FOG
FOREST CITY *  LGT RAIN  43  43 100 E15G25    29.92S
WEBSTER CITY * LGT RAIN  45  45 100 E21G28    29.82S
IOWA FALLS *   RAIN      45  43  93 E23G33    29.85F
$$

IAZ007>011-017>019-026>030-037>042-050>054-066-301700-
   NORTHEAST IOWA

CITY           SKY/WX    TMP DP  RH WIND       PRES   REMARKS
CEDAR RAPIDS   LGT RAIN  47  46  97 E23G31    29.83F FOG
CHARLES CITY * MIX PCPN  45  45 100 E21G26    29.95R
CLINTON *      LGT RAIN  48  46  93 E23G29    29.88F FOG
DECORAH *      CLOUDY    45  41  87 E16       29.98S
MONTICELLO *   LGT RAIN  46  45  93 E15       29.89F
OELWEIN *      LGT RAIN  45  45 100 NE22G30   29.92S
WATERLOO       LGT RAIN  45  42  89 E24G31    29.88F FOG
$$

IAZ064-065-067-068-078-301700-
   EAST CENTRAL IOWA

CITY           SKY/WX    TMP DP  RH WIND       PRES   REMARKS
DAVENPORT      LGT RAIN  49  46  90 E22G29    29.86F FOG
IOWA CITY      LGT RAIN  48  46  93 E16G24    29.85F FOG
MT. PLEASANT * RAIN      54  54 100 E18G25    29.76F
MUSCATINE *    CLOUDY    50  46  87 E16       29.83F FOG
QUAD CITIES    LGT RAIN  50  46  86 E22       29.85F FOG
$$

IAZ062-063-075>077-085>089-095>099-301700-
   SOUTHEAST IOWA

CITY           SKY/WX    TMP DP  RH WIND       PRES   REMARKS
BURLINGTON     RAIN      51  32  48 E15       29.76F
FAIRFIELD *    RAIN      48  48 100 E18G24    29.76F
FORT MADISON * RAIN      52  52 100 E17G25    29.75F
KEOKUK *       CLOUDY    54  52  94 E14G21    29.74S FOG
OSKALOOSA *    RAIN      47  46  96 E20G25    29.77F
OTTUMWA        RAIN      48  47  96 E17       29.75F FOG
WASHINGTON *   LGT RAIN  48  48 100 E16       29.81F
$$

ABBREVIATIONS USED IN REMARKS
   TC - TEMPERATURES IN CELSIUS
  WCI - WIND CHILL INDEX
   HX - HEAT INDEX
  VSB - VISIBILITY
$$




USA.gov is the U.S. government's official web portal to all federal, state and local government web resources and services.